Home   Weather   Norway   Vadsø   Past weeks
Flag for Norway

Past Weather in Vadsø, Norway — Yesterday and Last 2 Weeks

Currently: 36 °F. Snow flurries. Partly sunny. (Weather station: Kirkenes Lufthavn, Norway). See more current weather

Past Weather in Vadsø — Graph

°F

Vadsø Temperature Yesterday

Maximum temperature yesterday: 32 °F (at 11:20 am)
Minimum temperature yesterday: 19 °F (at 1:20 am)
Average temperature yesterday: 27 °F

High & Low Weather Summary for the Past Weeks

 TemperatureHumidityPressure
High41 °F (Mar 28, 11:50 am)100% (Mar 29, 3:20 am)29.83 "Hg (Mar 29, 3:20 am)
Low19 °F (Apr 9, 5:50 am)51% (Apr 9, 4:50 pm)28.68 "Hg (Apr 5, 11:50 pm)
Average32 °F82%29.31 "Hg
* Reported Mar 27 1:20 pm — Apr 11 2:50 pm, Vadsø. Weather by CustomWeather, © 2021

Note: Actual official high and low records may vary slightly from our data, if they occured in-between our weather recording intervals... More about our weather records

Vadsø Weather History for the Previous 24 Hours

Scroll right to see more
 ConditionsComfort  
Time TempWeatherWind HumidityBarometerVisibility
2:50 pm
Sun, Apr 11
36 °FScattered showers. Broken clouds.25 mph81%29.45 "HgN/A
2:20 pm36 °FScattered showers. Partly sunny.25 mph75%29.42 "HgN/A
1:50 pm34 °FBroken clouds.20 mph87%29.42 "HgN/A
1:20 pm34 °FPartly sunny.20 mph81%29.39 "HgN/A
12:50 pm32 °FLight snow. Fog.18 mph87%29.39 "Hg4 mi
12:20 pm30 °FLight mixture of precip. Partly sunny.17 mph86%29.39 "Hg4 mi
11:50 am30 °FLight snow. Ice fog.17 mph80%29.36 "Hg2 mi
11:20 am30 °FLight mixture of precip. Broken clouds.15 mph75%29.36 "HgN/A
10:50 am28 °FLight snow. Broken clouds.18 mph80%29.33 "Hg5 mi
10:20 am28 °FLight snow. Partly sunny.16 mph74%29.33 "HgN/A
9:50 am28 °FLight mixture of precip. Ice fog.16 mph74%29.33 "HgN/A
9:20 am27 °FPartly sunny.15 mph74%29.33 "HgN/A
8:50 am27 °FPassing clouds.18 mph74%29.30 "HgN/A
8:20 am27 °FPassing clouds.20 mph69%29.30 "HgN/A
7:50 am27 °FScattered clouds.18 mph69%29.30 "HgN/A
7:20 am25 °FPassing clouds.17 mph69%29.30 "HgN/A
6:50 am25 °FPartly sunny.20 mph69%29.30 "HgN/A
6:20 am23 °FPartly sunny.23 mph74%29.27 "HgN/A
5:50 am19 °FCold.16 mph73%29.30 "HgN/A
5:20 am19 °FCold.16 mph73%29.30 "HgN/A
4:50 am19 °FCold.14 mph73%29.30 "HgN/A
4:20 am19 °FCold.14 mph73%29.30 "HgN/A
3:50 am19 °FSunny.16 mph73%29.30 "Hg10 mi
3:20 am19 °FSunny.15 mph73%29.30 "Hg10 mi
2:50 am19 °FSunny.15 mph68%29.30 "Hg10 mi
2:20 am21 °FSunny.12 mph63%29.30 "Hg10 mi
1:50 am23 °FClear.16 mph63%29.30 "Hg10 mi
1:20 am21 °FPassing clouds.10 mph68%29.30 "HgN/A
12:50 am23 °FCold.14 mph63%29.30 "HgN/A
12:20 am23 °FClear.10 mph63%29.30 "Hg10 mi
11:50 pm
Sat, Apr 10
25 °FCold.12 mph59%29.30 "HgN/A
11:20 pm25 °FCold.13 mph63%29.30 "HgN/A
10:50 pm25 °FCold.10 mph69%29.30 "HgN/A
10:20 pm27 °FPassing clouds.13 mph69%29.30 "HgN/A
9:50 pm27 °FPassing clouds.13 mph64%29.30 "HgN/A
9:20 pm27 °FPassing clouds.15 mph64%29.27 "HgN/A
8:50 pm25 °FPassing clouds.10 mph69%29.27 "HgN/A
8:20 pm27 °FPartly cloudy.10 mph69%29.27 "HgN/A
7:50 pm28 °FMostly cloudy.10 mph74%29.24 "HgN/A
7:20 pm28 °FPartly cloudy.5 mph93%29.24 "HgN/A
6:50 pm28 °FMostly cloudy.6 mph100%29.24 "HgN/A
6:20 pm28 °FOvercast.6 mph100%29.21 "Hg4 mi
5:50 pm28 °FIce fog.7 mph100%29.21 "Hg1 mi
5:20 pm28 °FIce fog.7 mph100%29.21 "Hg1 mi
4:50 pm30 °FLow clouds.8 mph93%29.18 "Hg1 mi
4:20 pm30 °FMostly cloudy.7 mph93%29.18 "Hg1 mi
Weather by CustomWeather, © 2021

See weather overview